Change the Weather History Date:

Monday, November 14, 2011

  Actual Average Record
Temperature  
Mean Temperature 60 °F 45 °F  
Max Temperature 70 °F 55 °F 78 °F (1931)
Min Temperature 49 °F 36 °F 10 °F (1940)
Degree Days  
Heating Degree Days 5 20  
Month to date heating degree days 175 236  
Since 1 July heating degree days 528 601  
Cooling Degree Days 0 0  
Month to date cooling degree days 0 0  
Year to date cooling degree days 1508 1247  
Growing Degree Days 10 (Base 50)    
Moisture  
Dew Point 43 °F    
Average Humidity 64    
Maximum Humidity 83    
Minimum Humidity 44    
Precipitation  
Precipitation 0.00 in 0.12 in 1.68 in (1913)
Month to date precipitation 3.48 1.51  
Year to date precipitation 35.15 38.44  
Snow  
Snow 0.00 in 0.00 in 4.20 in (1906)
Month to date snowfall T 0.2  
Since 1 July snowfall T 0.2  
Since 1 September snowfall T 0.2  
Snow Depth 0.00 in    
Sea Level Pressure  
Sea Level Pressure 29.65 in    
Wind  
Wind Speed 10 mph (SW)    
Max Wind Speed 28 mph    
Max Gust Speed 35 mph    
Visibility 10 miles    
Events      
T = Trace of Precipitation, MM = Missing Value Source: NWS Daily Summary

Daily Weather History Graph

Daily Weather History Graph

Search for Another Location

Airport or City:

Trip Planner

Search our weather history database for the weather conditions in past years. The results will help you decide how hot, cold, wet, or windy it might be!

Date:

Astronomy

Nov. 14, 2011 Rise Set
Actual Time 6:49 AM CST 4:56 PM CST
Civil Twilight 6:21 AM CST 5:24 PM CST
Nautical Twilight 5:49 AM CST 5:56 PM CST
Astronomical Twilight 5:18 AM CST 6:28 PM CST
Moon 8:04 PM CST (11/14) 10:08 AM CST (11/14)
Length of Visible Light 11h 02m
Length of Day
10h 06m
Waning Gibbous, 86% of the Moon is Illuminated
Nov 14
Waning Gibbous
Nov 18
Last Quarter
Nov 25
New
Dec 2
First Quarter
Dec 10
Full

Hourly Weather History & Observations

Time (CST) Temp. Dew Point Humidity Pressure Visibility Wind Dir Wind Speed Gust Speed Precip Events Conditions
12:54 AM 57.0 °F 42.1 °F 57% 29.59 in 10.0 mi ESE 6.9 mph - N/A   Mostly Cloudy
1:54 AM 55.9 °F 42.1 °F 60% 29.59 in 10.0 mi East 4.6 mph - N/A   Clear
2:54 AM 53.1 °F 42.1 °F 66% 29.57 in 10.0 mi East 8.1 mph - N/A   Clear
3:54 AM 53.1 °F 44.1 °F 71% 29.55 in 10.0 mi ESE 6.9 mph - N/A   Clear
4:54 AM 51.1 °F 45.0 °F 80% 29.55 in 10.0 mi East 5.8 mph - N/A   Clear
5:54 AM 50.0 °F 44.6 °F 82% 29.54 in 10.0 mi East 6.9 mph - N/A   Clear
6:54 AM 52.0 °F 46.9 °F 83% 29.53 in 10.0 mi SE 5.8 mph - N/A   Clear
7:54 AM 57.0 °F 52.0 °F 83% 29.54 in 10.0 mi South 10.4 mph - N/A   Clear
8:54 AM 66.0 °F 53.1 °F 63% 29.56 in 10.0 mi WSW 15.0 mph - N/A   Clear
9:54 AM 66.9 °F 46.9 °F 49% 29.59 in 10.0 mi West 23.0 mph 33.4 mph N/A   Clear
10:54 AM 69.1 °F 46.0 °F 44% 29.61 in 10.0 mi WSW 23.0 mph 32.2 mph N/A   Clear
11:54 AM 66.0 °F 45.0 °F 47% 29.65 in 10.0 mi West 18.4 mph 27.6 mph N/A   Clear
12:54 PM 63.0 °F 45.0 °F 52% 29.66 in 10.0 mi West 15.0 mph 23.0 mph N/A   Clear
1:54 PM 62.1 °F 42.1 °F 48% 29.67 in 10.0 mi West 12.7 mph - N/A   Clear
2:54 PM 61.0 °F 42.1 °F 50% 29.69 in 10.0 mi WSW 12.7 mph - N/A   Clear
3:54 PM 59.0 °F 43.0 °F 55% 29.71 in 10.0 mi SW 8.1 mph - N/A   Clear
4:54 PM 57.0 °F 41.0 °F 55% 29.73 in 10.0 mi SW 8.1 mph - N/A   Clear
5:54 PM 54.0 °F 39.0 °F 57% 29.74 in 10.0 mi SW 6.9 mph - N/A   Clear
6:54 PM 55.0 °F 37.9 °F 53% 29.74 in 10.0 mi SW 8.1 mph - N/A   Clear
7:54 PM 54.0 °F 37.9 °F 55% 29.77 in 10.0 mi SW 8.1 mph - N/A   Clear
8:54 PM 55.0 °F 37.0 °F 51% 29.76 in 10.0 mi West 9.2 mph - N/A   Clear
9:54 PM 54.0 °F 37.0 °F 53% 29.76 in 10.0 mi West 5.8 mph - N/A   Clear
10:54 PM 53.1 °F 37.0 °F 55% 29.76 in 10.0 mi West 5.8 mph - N/A   Clear
11:54 PM 53.1 °F 37.0 °F 55% 29.76 in 10.0 mi West 3.5 mph - N/A   Clear